Regional Weather Roundup
Issued by NWS Burlington, VT

Current Version | Previous Version | Text Only | Print | Product List | Glossary On
Versions: 1 2 3 4 5 6 7 8 9 10 11 12 13 14 15 16 17 18 19 20 21 22 23 24 25 26 27 28 29 30 31 32 33 34 35 36 37 38 39 40 41 42 43 44 45 46 47 48 49 50
000
ASUS41 KBTV 010010
RWRBTV
VERMONT REGIONAL WEATHER ROUNDUP
NATIONAL WEATHER SERVICE BURLINGTON VT
800 PM EDT THU JUL 31 2014

NOTE: "FAIR" INDICATES FEW OR NO CLOUDS BELOW 12,000 FEET WITH NO
SIGNIFICANT WEATHER AND/OR OBSTRUCTIONS TO VISIBILITY.

* THESE REPORTS ARE NOT UNDER NWS QUALITY CONTROL AND/OR DO NOT
  REPORT WEATHER SUCH AS PRECIPITATION AND FOG.

VTZ001>019-010100-
_____VERMONT_____


CITY           SKY/WX    TMP DP  RH WIND       PRES   REMARKS
BURLINGTON     PTCLDY    69  61  75 E3        30.05S
6HR MIN TEMP:  60; 6HR MAX TEMP:  73; 6HR PCP:  0.03;

MONTPELIER     CLEAR     65  57  75 CALM      30.13R
6HR MIN TEMP:  57; 6HR MAX TEMP:  70; 6HR PCP:  0.09;

ST. JOHNSBURY*   N/A     66  60  81 MISG      30.07R
6HR MIN TEMP:  63; 6HR MAX TEMP:  71; 6HR PCP:  0.01;

LYNDONVILLE*   FAIR      66  56  69 CALM      30.11S
6HR MIN TEMP:  62; 6HR MAX TEMP:  69;

MIDDLEBURY*    FAIR      67  66  98 SE3       30.07S
6HR MIN TEMP:  60; 6HR MAX TEMP:  73;

RUTLAND*       CLEAR     66  59  77 S6        30.10R
6HR MIN TEMP:  66; 6HR MAX TEMP:  73;

SPRINGFIELD    CLEAR     67  64  90 CALM      30.11R
6HR MIN TEMP:  65; 6HR MAX TEMP:  71; 6HR PCP:  0.28;

HIGHGATE*      FAIR      65  59  79 S3        30.06R
6HR MIN TEMP:  62; 6HR MAX TEMP:  72;

NEWPORT*       FAIR      64  57  78 CALM      30.10R
6HR MIN TEMP:  55; 6HR MAX TEMP:  69;

BENNINGTON     PTCLDY    64  61  90 CALM      30.11R
6HR MIN TEMP:  63; 6HR MAX TEMP:  73; 6HR PCP:  0.34;

SUTTON*          N/A     59 N/A N/A MISG        N/A

_____LAKE CHAMPLAIN_____


CITY           SKY/WX    TMP DP  RH WIND       PRES   REMARKS
COLCHESTER RF*   N/A     70  63  78 SE3         N/A
DIAMOND ISL*     N/A    N/A N/A N/A SW7         N/A

$$

NYZ007-026>031-035-052-083-010100-
_____NORTHERN NEW YORK_____


CITY           SKY/WX    TMP DP  RH WIND       PRES   REMARKS
PLATTSBURGH    CLEAR     63  62  97 CALM      30.05R
6HR MIN TEMP:  63; 6HR MAX TEMP:  69; 6HR PCP:  0.11;

SARANAC LAKE   CLEAR     61  54  77 SW5       30.08R
6HR MIN TEMP:  58; 6HR MAX TEMP:  67; 6HR PCP:  0.25;

MASSENA        CLEAR     66  59  78 SW5       30.03S
6HR MIN TEMP:  63; 6HR MAX TEMP:  71; 6HR PCP:  0.05;

OGDENSBURG*    CLEAR     66  57  72 SW3       30.03S
POTSDAM*       CLEAR     66  57  72 SW5       30.04S
WATERTOWN      CLEAR     69  55  60 S5        30.05R
6HR MIN TEMP:  69; 6HR MAX TEMP:  75;

FT DRUM        CLEAR     68  54  60 SW6       30.06R
6HR MIN TEMP:  68; 6HR MAX TEMP:  73;

ALBANY         PTCLDY    71  65  81 CALM      30.08R
6HR MIN TEMP:  71; 6HR MAX TEMP:  78; 6HR PCP:  0.02;

GLENS FALLS    MOCLDY    70  63  78 S7        30.08R
6HR MIN TEMP:  69; 6HR MAX TEMP:  76;


$$
NHZ002-005-011-010100-
_____NEW HAMPSHIRE_____


CITY           SKY/WX    TMP DP  RH WIND       PRES   REMARKS
LEBANON        CLEAR     67  61  81 S6        30.09R
6HR MIN TEMP:  67; 6HR MAX TEMP:  73;

KEENE          MOCLDY    64  55  72 NE5       30.13R
6HR MIN TEMP:  64; 6HR MAX TEMP:  77; 6HR PCP:  0.07;

MT WASHINGTON  FOG       45  45 100 W29         N/A  VSB 0
6HR MIN TEMP:  42; 6HR MAX TEMP:  46; 6HR PCP:  0.15;

PLYMOUTH       FAIR      67  60  78 CALM      30.09R
6HR MIN TEMP:  67; 6HR MAX TEMP:  75;

WHITEFIELD     PTCLDY    66  60  81 E3        30.11R
6HR MIN TEMP:  65; 6HR MAX TEMP:  71; 6HR PCP:  0.03;


$$

_____REGIONAL QUEBEC LOCATIONS_____


CITY           SKY/WX    TMP DP  RH WIND       PRES   REMARKS
MONTREAL       PTCLDY    68  57  68 S8        30.03R
QUEBEC CITY    MOCLDY    59  57  94 S3        30.05R
SHERBROOKE     CLEAR     63  57  82 S2        30.08R

_____REGIONAL ONTARIO LOCATIONS_____


CITY           SKY/WX    TMP DP  RH WIND       PRES   REMARKS
OTTAWA         MOCLDY    66  57  72 S8        30.01R

______KEY______
VSB  - VISIBILITY IN MILES
WCI  - WIND CHILL INDEX
HX   - HEAT INDEX
$$
NNNN


USA.gov is the U.S. government's official web portal to all federal, state and local government web resources and services.